Regional Weather Roundup
Issued by NWS Charleston, SC

Home | Current Version | Previous Version | Text Only | Print | Product List | Glossary On
Versions: 1 2 3 4 5 6 7 8 9 10 11 12 13 14 15 16 17 18 19 20 21 22 23 24 25 26 27 28 29 30 31 32 33 34 35 36 37 38 39 40 41 42 43 44 45 46 47 48 49 50
000
ASUS42 KCHS 232227
RWRCHS

REGIONAL WEATHER ROUNDUP
NATIONAL WEATHER SERVICE CHARLESTON SC
600 PM EDT SUN JUL 23 2017

NOTE: "FAIR" INDICATES FEW OR NO CLOUDS BELOW 12,000 FEET WITH NO
SIGNIFICANT WEATHER AND/OR OBSTRUCTIONS TO VISIBILITY.

NOT ALL STATIONS ARE QUALITY CONTROLLED. USE DATA WITH CAUTION...
ESPECIALLY DEWPOINT OBSERVATIONS.

SCZ027-030-031-034>040-042>050-232300-
...SOUTHEAST SOUTH CAROLINA...

CITY           SKY/WX    TMP DP  RH WIND       PRES   REMARKS
N CHARLESTON   CLOUDY    83  74  74 SW20      29.90S
WATERFRONT PRK   N/A     83  78  84 SW17      29.87F HX  93
JOHNS ISLAND   FAIR      82  77  83 SW15G24   29.91R HX  91
PINOPOLIS        N/A     84  77  79 S12       29.81R HX  94
MONCKS CORNER  DRIZZLE   81  75  83 SW7       29.91R
SUMMERVILLE    MOCLDY    81  77  89 SW6       29.92R
BEAUFORT MCAS  CLOUDY    85  77  77 SW15      29.91R HX  95
BEAUFORT ARPT  FAIR      82  73  74 SW12      29.89F
HILTON HEAD IS PTSUNNY   86  75  70 S17       29.91S HX  95
WALTERBORO     TSTM      77  73  88 W6        29.93S
ALLENDALE      NOT AVBL

...SOUTHERN MIDLANDS AND PEE DEE...

CITY           SKY/WX    TMP DP  RH WIND       PRES   REMARKS
GEORGETOWN     FAIR      82  77  83 SW12G23   29.90R HX  91
KINGSTREE      MOCLDY    81  70  69 S8        29.88R
ORANGEBURG     MOSUNNY   93  73  52 S12       29.86R HX 102
BARNWELL       FAIR      93  75  55 SW12G17   29.86S HX 104
AIKEN          FAIR      84  77  79 S3        29.89R THUNDER HX  94
MANNING        CLOUDY    79  75  89 S16G24    29.90R THUNDER
COLUMBIA       CLOUDY    93  74  53 S7        29.83R HX 103
SUMTER         MOSUNNY   91  74  58 S9        29.83R HX 100
FLORENCE       MOSUNNY   90  76  63 SW8       29.84R THUNDER HX 101
MYRTLE BEACH   MOSUNNY   82  77  83 W17       29.89  HX  91
N MYRTLE BEACH MOSUNNY   82  77  84 SW25G35   29.87S HX  90

$$

GAZ063-065-086>088-099>101-113>116-118-119-134>141-150-232300-
...SOUTHEAST GEORGIA...

CITY           SKY/WX    TMP DP  RH WIND       PRES   REMARKS
SAVANNAH ARPT  PTSUNNY   82  77  84 SW13      29.92S HX  90
HUNTER AAF     MOSUNNY   81  76  84 SW9       29.89F
FORT STEWART   LGT RAIN  79  73  83 W7        29.89F
STATESBORO     CLOUDY    85  73  68 SW12      29.90F HX  92
SYLVANIA       CLOUDY    84  76  77 W7        29.91S HX  93
CLAXTON        FAIR      79  76  91 SW5       29.90F

...CSRA...CENTRAL AND FAR SOUTHEAST GEORGIA...

CITY           SKY/WX    TMP DP  RH WIND       PRES   REMARKS
THOMSON        MOSUNNY   91  75  58 W10       29.91S HX 101
AUGUSTA-BUSH   LGT RAIN  85  76  74 SW15G23   29.85R HX  94
AUGUSTA-DANIEL CLOUDY    93  70  46 SW12      29.85S HX  99
SWAINSBORO     FAIR      82  73  74 SW6       29.92S
VIDALIA        CLOUDY    79  77  94 SW3       29.91F
EASTMAN        FAIR      84  65  52 SE7       29.93R THUNDER
HAZLEHURST     LGT RAIN  80  80 100 S6        29.90F
ALMA           CLOUDY    83  74  74 SW10      29.91F
WAYCROSS       CLOUDY    88  80  75 W12       29.91F HX 104
JESUP          NOT AVBL
BAXLEY         RAIN      82  82 100 W5        29.91F HX  97
BRUNSWICK      CLOUDY    81  75  83 SW8       29.94F
SAINT SIMONS   MOSUNNY   80  74  81 SW9       29.93F

$$

SCZ027-028-034-036>038-045-046-048>050-GAZ119-141-232300-
...LAKE AND SUPPLEMENTAL COASTAL OBSERVATIONS...

STATION/POSITION TIME  TEMP    WIND        PRES    WAVE   SWELL
                       AIR SEA DIR/SP/G            HT/PER HT/PER/DIR
                 (UTC) (F)     (DEG/KT/KT) (MB)    (FT/S) (FT/S/D)
WINYAH BAY       2145   84     210/ 17     1011.0F
LAKE MURRAY      2220   81      20/  4/  9 1010.2
ACE BASIN NERRS  2145   83     170/  2     1013.0S
FORT PULASKI     2200   83 87  240/ 10/ 16 1013.2
SAPELO ISLAND    2200   81     210/  9     1013.0

$$

ANZ835-935-AMZ111-154-330-350-352-354-370-450-454-472-232300-
...C-MAN AND BUOY OBSERVATIONS...

STATION/POSITION TIME  TEMP    WIND        PRES    WAVE   SWELL
                       AIR SEA DIR/SP/G            HT/PER HT/PER/DIR
                 (UTC) (F)     (DEG/KT/KT) (MB)    (FT/S) (FT/S/D)
BUOY 41004       2210   82 84  210/ 21/ 25 1011.6
BUOY 41008       2150   80 82  200/ 16/ 17 1013.2F   4/ 4   2/100/ 9
FOLLY BEACH CMAN 2200   82     210/ 26/ 29 1013.0F
CAPERS NEARSHORE 2208   78 84  230/ 21/ 31 1011.6F
FRIPP NEARSHORE  2208   83 85  230/ 19/ 25 1011.6S


STATION/POSITION TIME  TEMP    WIND        PRES    WAVE   SWELL
                       AIR SEA DIR/SP/G            HT/PER HT/PER/DIR
                 (UTC) (F)     (DEG/KT/KT) (MB)    (FT/S) (FT/S/D)
5E ST. MARYS GA  2200      82                N/A     2/ 9
FRYING PAN BUOY  2210   83 84  220/ 21/ 25 1011.4
BUOY 41025       2150   84 84  220/ 23/ 27 1011.0F   7/ 7   2/180/ 9
CAPE LOOKOUT NC  2200   84     220/ 11/ 16 1011.0F
BUOY 41002       2150   83 84  230/ 17/ 19 1015.9F   5/ 6   2/100/10
BUOY 41010       2210   84 85  180/  8/ 10 1016.8
ST AUGUSTINE FL  2200   80 77  190/ 12/ 15 1015.0F


$$




USA.gov is the U.S. government's official web portal to all federal, state and local government web resources and services.